Temp
-12 -13 -13 -13 -13 -13 -13 -13 -13 -13 -13 -13 -13 -13 -13 -13 -13 -13 -13 -13 -13 -13 -13 -13 -13 -13 -13 -13 -13 -13 -13 -13 -13 -13 -13 -13 -13 -13 -13 -13 -13 -13
-13 -13 -13 -13 -13 -13 -13 -13 -13 -13 -13 -13 -13 -13 -13 -13 -13 -14 -14 -14 -14 -13 -13 -13 -13 -13 -13 -13 -13 -13 -13 -13 -13 -13 -13 -13 -13 -13 -13 -13 -13 -13
-13 -13 -13 -13 -13 -13 -13 -13 -13 -13 -13 -13 -14 -14 -13 -13 -13 -14 -14 -14 -14 -14 -14 -13 -13 -13 -13 -13 -14 -14 -14 -13 -13 -13 -13 -13 -13 -13 -13 -13 -13 -13
-12 -13 -13 -13 -13 -13 -13 -13 -13 -13 -13 -13 -13 -13 -13 -13 -14 -14 -14 -14 -14 -14 -14 -14 -13 -13 -13 -13 -13 -13 -13 -13 -13 -13 -14 -13 -13 -13 -13 -13 -13 -13
-12 -12 -12 -12 -12 -12 -13 -13 -13 -13 -13 -13 -13 -13 -13 -13 -13 -14 -14 -14 -14 -14 -14 -14 -14 -14 -14 -13 -13 -13 -13 -13 -13 -13 -13 -13 -13 -13 -13 -13 -13 -13
-12 -12 -12 -12 -12 -12 -12 -12 -13 -13 -13 -13 -13 -13 -13 -13 -13 -13 -14 -14 -14 -14 -14 -14 -14 -14 -14 -14 -14 -14 -14 -13 -13 -13 -13 -13 -13 -13 -13 -13 -13 -13
-12 -12 -12 -12 -12 -12 -12 -13 -13 -13 -13 -13 -13 -13 -13 -14 -14 -14 -14 -14 -14 -14 -14 -14 -14 -14 -14 -14 -14 -14 -14 -14 -13 -13 -13 -13 -13 -13 -13 -13 -13 -13
-12 -12 -12 -12 -12 -12 -13 -13 -13 -13 -13 -13 -13 -13 -13 -13 -14 -14 -14 -14 -14 -14 -14 -14 -14 -14 -14 -14 -14 -14 -14 -14 -13 -13 -13 -13 -13 -13 -13 -13 -13 -13
-12 -12 -12 -12 -12 -12 -12 -13 -13 -13 -13 -13 -13 -13 -13 -13 -13 -14 -14 -14 -14 -14 -14 -14 -14 -14 -14 -14 -14 -14 -14 -14 -14 -13 -13 -13 -14 -14 -14 -14 -14 -14
-12 -12 -12 -12 -12 -12 -12 -12 -12 -12 -13 -13 -13 -13 -13 -13 -13 -14 -14 -14 -14 -14 -14 -14 -14 -14 -14 -14 -14 -14 -14 -14 -14 -14 -14 -14 -14 -15 -15 -15 -15 -15
-12 -12 -12 -12 -12 -12 -12 -12 -12 -12 -12 -12 -13 -13 -13 -13 -13 -14 -14 -14 -14 -14 -14 -14 -14 -14 -14 -14 -14 -14 -14 -14 -14 -14 -14 -14 -14 -15 -15 -15 -15 -15
-12 -12 -12 -12 -12 -12 -12 -12 -12 -12 -12 -12 -12 -13 -13 -13 -13 -14 -14 -14 -14 -14 -14 -14 -14 -14 -14 -14 -14 -14 -14 -14 -14 -14 -14 -14 -15 -15 -15 -15 -15 -15
-12 -12 -12 -12 -12 -12 -12 -12 -12 -12 -12 -12 -12 -12 -13 -13 -13 -14 -14 -14 -14 -14 -14 -14 -14 -14 -14 -15 -15 -14 -14 -14 -14 -14 -14 -14 -15 -15 -15 -15 -15 -15
-12 -12 -12 -12 -12 -12 -12 -12 -12 -12 -12 -12 -12 -12 -12 -12 -13 -13 -14 -14 -14 -14 -14 -14 -14 -14 -14 -15 -15 -15 -14 -14 -14 -14 -15 -15 -15 -15 -15 -15 -15 -15
-12 -12 -12 -12 -12 -12 -12 -12 -12 -12 -12 -12 -12 -12 -12 -12 -13 -13 -13 -14 -14 -14 -14 -14 -14 -14 -14 -14 -14 -14 -14 -14 -14 -14 -14 -15 -15 -15 -15 -15 -15 -15
-12 -12 -12 -12 -12 -12 -12 -12 -12 -12 -12 -12 -12 -12 -12 -12 -12 -13 -13 -13 -13 -14 -14 -14 -14 -14 -14 -14 -14 -14 -14 -14 -14 -14 -14 -14 -15 -15 -15 -15 -15 -15
-13 -13 -12 -12 -12 -12 -12 -12 -12 -12 -12 -12 -12 -12 -12 -12 -12 -12 -13 -13 -13 -13 -14 -14 -14 -15 -14 -14 -14 -14 -14 -14 -14 -14 -14 -15 -15 -15 -15 -15 -15 -15
-13 -13 -13 -13 -12 -12 -12 -12 -12 -12 -12 -12 -12 -12 -12 -12 -12 -12 -13 -13 -13 -13 -14 -14 -14 -14 -14 -14 -14 -15 -15 -15 -15 -15 -15 -15 -15 -15 -15 -15 -15 -15
-13 -13 -13 -13 -13 -12 -12 -12 -12 -12 -12 -12 -12 -12 -12 -12 -12 -12 -12 -12 -13 -13 -14 -14 -14 -14 -14 -14 -14 -14 -15 -15 -15 -15 -15 -15 -15 -15 -15 -14 -14 -14
-13 -13 -13 -13 -13 -13 -12 -12 -12 -12 -12 -12 -12 -12 -12 -12 -12 -12 -12 -12 -12 -13 -13 -14 -14 -14 -14 -14 -14 -14 -15 -15 -15 -15 -15 -15 -14 -14 -14 -14 -15 -15
-13 -13 -13 -12 -13 -13 -13 -12 -13 -13 -12 -12 -12 -12 -12 -12 -12 -12 -12 -12 -12 -12 -13 -13 -13 -14 -14 -14 -14 -14 -14 -15 -15 -15 -14 -14 -14 -14 -14 -15 -15 -15
-13 -13 -13 -13 -12 -13 -13 -13 -13 -13 -13 -13 -12 -12 -12 -12 -12 -12 -12 -12 -12 -12 -12 -13 -13 -13 -13 -14 -14 -14 -14 -14 -15 -14 -14 -14 -14 -14 -15 -14 -15 -15
-13 -13 -13 -13 -13 -12 -13 -13 -13 -13 -13 -13 -13 -13 -13 -13 -13 -12 -12 -12 -12 -12 -12 -13 -13 -13 -13 -13 -14 -14 -14 -14 -14 -14 -14 -14 -14 -14 -15 -15 -15 -15
-13 -13 -13 -13 -13 -12 -13 -13 -13 -13 -13 -13 -13 -13 -13 -13 -13 -13 -13 -13 -13 -12 -12 -13 -13 -13 -13 -13 -13 -13 -14 -14 -14 -14 -14 -14 -14 -14 -15 -15 -15 -15
-13 -13 -13 -13 -13 -13 -13 -13 -13 -13 -13 -13 -13 -13 -13 -13 -13 -13 -13 -13 -13 -13 -13 -13 -13 -13 -13 -13 -13 -13 -13 -14 -14 -14 -14 -14 -14 -15 -15 -15 -15 -15
-13 -14 -14 -13 -13 -13 -13 -13 -13 -13 -13 -13 -13 -13 -13 -13 -13 -13 -13 -13 -13 -13 -13 -13 -13 -13 -13 -13 -13 -13 -13 -13 -14 -14 -14 -14 -14 -14 -15 -15 -15 -15
Height
5789 5789 5790 5790 5790 5791 5791 5791 5792 5792 5792 5792 5793 5793 5795 5796 5797 5797 5798 5799 5799 5800 5801 5801 5802 5803 5803 5804 5804 5804 5805 5806 5806 5807 5807 5807 5808 5809 5809 5810 5810 5811
5788 5788 5789 5789 5789 5789 5789 5789 5789 5789 5789 5790 5791 5793 5794 5795 5795 5796 5797 5797 5798 5798 5799 5800 5800 5801 5801 5802 5802 5803 5803 5803 5804 5804 5805 5805 5806 5807 5808 5809 5809 5810
5787 5788 5788 5788 5788 5788 5788 5788 5787 5787 5788 5791 5793 5794 5794 5794 5794 5795 5795 5796 5796 5797 5798 5798 5798 5799 5799 5799 5800 5800 5800 5801 5801 5802 5802 5803 5804 5805 5806 5807 5807 5808
5786 5786 5786 5786 5786 5786 5785 5785 5786 5788 5790 5792 5792 5792 5792 5792 5793 5793 5794 5794 5794 5795 5795 5796 5796 5796 5797 5797 5797 5797 5798 5798 5799 5799 5800 5800 5801 5802 5803 5803 5804 5804
5785 5785 5785 5785 5784 5784 5783 5784 5786 5789 5790 5789 5788 5789 5790 5790 5791 5791 5791 5791 5792 5792 5793 5793 5793 5794 5794 5795 5795 5795 5795 5796 5796 5796 5796 5797 5798 5799 5799 5799 5800 5800
5784 5784 5783 5783 5782 5781 5781 5784 5786 5788 5787 5786 5786 5787 5787 5788 5788 5788 5788 5789 5789 5790 5791 5791 5791 5791 5792 5792 5792 5793 5793 5793 5793 5794 5794 5794 5795 5795 5795 5795 5796 5796
5783 5783 5782 5781 5780 5779 5781 5785 5785 5784 5784 5784 5784 5784 5784 5784 5784 5785 5785 5786 5787 5787 5788 5788 5788 5789 5789 5789 5790 5790 5790 5790 5791 5791 5791 5791 5792 5792 5792 5792 5792 5792
5782 5781 5780 5779 5777 5777 5781 5784 5783 5782 5781 5781 5781 5782 5782 5781 5781 5782 5782 5783 5783 5784 5784 5785 5785 5785 5786 5786 5787 5787 5787 5787 5788 5788 5789 5789 5790 5789 5789 5789 5789 5789
5780 5780 5779 5778 5776 5776 5780 5782 5781 5780 5780 5779 5779 5779 5779 5779 5779 5779 5779 5780 5780 5780 5781 5781 5781 5781 5782 5782 5783 5783 5784 5784 5785 5786 5787 5787 5786 5786 5786 5786 5786 5787
5779 5778 5778 5777 5775 5775 5778 5779 5778 5778 5778 5778 5777 5776 5775 5775 5775 5776 5776 5777 5777 5777 5777 5777 5777 5777 5778 5778 5779 5779 5779 5780 5781 5783 5784 5784 5784 5783 5782 5782 5783 5783
5777 5777 5776 5775 5774 5774 5776 5777 5777 5776 5776 5776 5775 5773 5772 5772 5771 5772 5772 5773 5774 5774 5774 5774 5774 5774 5774 5775 5774 5774 5775 5776 5778 5780 5781 5782 5782 5781 5781 5780 5780 5781
5775 5775 5774 5773 5773 5773 5774 5775 5775 5774 5774 5774 5773 5771 5770 5768 5768 5768 5768 5769 5770 5770 5771 5771 5770 5770 5771 5772 5771 5771 5772 5774 5775 5776 5777 5777 5778 5778 5778 5778 5778 5778
5772 5772 5772 5772 5771 5771 5772 5773 5773 5773 5772 5772 5771 5770 5768 5766 5765 5764 5765 5766 5766 5767 5767 5767 5767 5768 5768 5768 5768 5769 5770 5771 5772 5772 5772 5773 5774 5774 5774 5773 5773 5773
5769 5770 5770 5769 5769 5769 5770 5770 5770 5771 5770 5770 5769 5768 5767 5765 5763 5762 5762 5763 5763 5763 5764 5764 5765 5766 5766 5765 5765 5766 5767 5768 5769 5768 5768 5769 5770 5770 5770 5770 5770 5770
5766 5767 5767 5767 5766 5767 5767 5767 5767 5768 5768 5768 5767 5766 5765 5764 5762 5761 5760 5760 5760 5760 5761 5761 5761 5762 5763 5763 5763 5764 5764 5765 5765 5765 5765 5765 5765 5766 5766 5766 5766 5767
5763 5763 5764 5764 5763 5764 5764 5765 5765 5765 5765 5765 5765 5764 5764 5762 5761 5760 5759 5758 5758 5758 5758 5758 5758 5759 5760 5760 5761 5761 5762 5762 5762 5761 5761 5761 5761 5761 5762 5762 5763 5763
5760 5760 5760 5760 5760 5760 5761 5762 5762 5762 5762 5762 5761 5762 5762 5761 5760 5759 5758 5757 5757 5757 5757 5757 5757 5757 5757 5757 5758 5758 5758 5758 5758 5758 5758 5757 5758 5758 5758 5759 5760 5760
5756 5757 5757 5757 5757 5757 5758 5758 5759 5759 5759 5759 5759 5759 5759 5759 5758 5757 5757 5756 5756 5755 5755 5755 5755 5755 5755 5755 5755 5755 5756 5755 5755 5756 5755 5755 5755 5755 5755 5756 5756 5756
5752 5753 5753 5753 5754 5754 5754 5755 5755 5755 5756 5756 5756 5757 5757 5756 5756 5755 5755 5754 5754 5754 5753 5753 5753 5753 5753 5753 5753 5753 5753 5753 5753 5754 5754 5753 5752 5753 5752 5752 5752 5752
5748 5748 5749 5750 5750 5751 5751 5752 5751 5751 5752 5753 5753 5754 5754 5754 5753 5753 5753 5753 5752 5752 5751 5751 5751 5751 5751 5751 5751 5751 5751 5751 5751 5751 5751 5750 5749 5749 5749 5749 5748 5748
5744 5744 5745 5746 5747 5747 5748 5748 5747 5747 5747 5748 5749 5750 5751 5751 5751 5751 5751 5751 5750 5750 5749 5749 5749 5748 5749 5749 5749 5749 5749 5748 5747 5748 5748 5747 5746 5746 5745 5745 5745 5744
5741 5741 5741 5742 5743 5744 5744 5744 5743 5743 5743 5744 5745 5746 5747 5747 5747 5748 5748 5748 5748 5748 5747 5747 5746 5746 5746 5746 5746 5746 5745 5744 5744 5744 5744 5744 5743 5743 5742 5741 5741 5740
5737 5737 5737 5737 5738 5739 5740 5740 5739 5739 5739 5740 5741 5742 5743 5743 5744 5744 5745 5745 5745 5745 5744 5744 5744 5744 5744 5743 5743 5743 5743 5742 5741 5740 5740 5741 5740 5739 5738 5737 5737 5736
5733 5733 5733 5733 5734 5735 5735 5735 5735 5735 5735 5735 5736 5737 5738 5739 5740 5740 5741 5741 5741 5741 5741 5741 5740 5741 5741 5741 5740 5740 5740 5739 5738 5738 5737 5737 5736 5735 5734 5734 5733 5733
5727 5727 5728 5728 5729 5730 5730 5730 5730 5730 5730 5730 5731 5732 5733 5734 5736 5736 5737 5737 5737 5737 5738 5737 5737 5737 5737 5737 5737 5737 5737 5736 5736 5735 5734 5733 5732 5731 5730 5730 5730 5729
5721 5722 5723 5723 5724 5724 5724 5725 5725 5725 5725 5726 5727 5727 5728 5729 5731 5732 5732 5733 5733 5733 5734 5733 5733 5733 5733 5733 5733 5733 5733 5733 5732 5731 5730 5729 5728 5727 5726 5726 5726 5725
Wind_Speed
7 8 8 8 8 8 9 9 10 12 14 16 17 18 18 17 17 18 18 17 18 18 18 18 18 18 19 19 20 20 20 20 20 20 20 20 20 20 20 19 19 20
8 8 9 9 10 10 10 10 11 13 14 15 15 16 16 17 17 18 19 19 19 20 20 20 20 21 21 21 22 22 22 23 22 22 23 22 22 22 22 21 21 22
8 9 10 10 11 11 11 12 14 15 15 14 13 13 14 15 17 18 19 20 21 21 21 22 22 23 24 24 24 25 25 25 25 24 25 25 25 24 24 24 24 24
8 9 10 11 12 13 13 14 15 14 12 13 14 15 14 15 16 17 18 20 21 22 22 23 24 25 26 26 27 27 28 28 27 27 27 27 27 26 26 26 26 27
8 9 10 11 12 14 15 15 14 12 11 14 16 17 16 15 16 17 18 20 21 22 23 24 25 25 26 27 28 29 30 30 29 29 29 29 28 28 28 28 29 29
8 9 10 11 12 14 15 14 12 12 12 15 16 16 18 18 18 18 19 20 21 22 23 24 24 25 26 27 28 30 30 31 31 30 30 30 30 29 30 31 31 31
9 9 11 12 14 16 15 11 11 12 14 15 16 17 18 20 20 20 20 20 21 21 22 23 24 25 26 27 27 29 30 30 30 31 31 31 30 30 31 31 31 32
9 10 12 13 16 17 13 10 11 14 14 16 17 18 19 21 22 23 23 22 22 22 23 23 25 26 26 27 27 27 28 29 29 30 29 29 28 29 29 29 29 29
10 11 12 14 17 17 13 11 13 15 15 17 19 20 20 21 23 23 24 24 24 23 24 25 25 26 26 26 26 27 28 29 29 29 28 27 27 28 28 28 28 27
12 12 12 14 17 16 13 13 14 15 17 18 20 21 22 22 23 23 24 24 24 25 26 26 27 27 27 26 26 27 28 30 30 29 28 28 28 29 31 31 30 29
14 13 13 15 16 15 14 13 14 16 17 19 20 22 22 23 23 23 23 23 23 24 26 27 28 29 28 28 28 28 29 29 29 29 29 30 30 31 33 33 33 32
17 15 15 16 17 16 14 14 14 16 17 19 21 22 23 23 23 23 22 22 22 24 25 27 29 29 29 29 29 28 27 27 27 28 30 31 31 31 32 33 34 33
19 18 17 17 17 17 16 15 15 15 17 18 20 22 23 24 23 22 20 20 21 23 25 27 28 28 28 30 30 29 27 26 26 28 31 32 31 31 32 33 33 32
21 20 19 19 19 18 17 17 16 16 16 17 20 22 23 23 22 22 19 18 19 21 23 26 27 26 26 27 28 28 28 27 27 28 30 31 31 31 32 33 32 31
23 22 21 21 21 20 19 18 18 17 16 16 18 21 22 22 20 19 19 18 18 19 21 24 26 27 26 25 25 26 28 29 28 29 29 29 29 30 31 32 33 32
24 23 23 23 23 22 21 20 19 19 18 17 17 19 20 21 19 17 17 17 17 17 18 20 24 27 27 25 24 25 27 28 29 29 29 28 29 30 31 32 33 33
24 24 24 24 25 25 24 22 21 20 19 18 18 18 18 19 18 17 16 17 17 17 17 17 20 24 27 26 25 25 26 28 29 29 29 29 29 30 31 31 32 32
26 25 25 26 26 27 26 25 23 21 21 20 18 17 17 18 18 17 15 16 17 17 17 17 19 22 26 27 28 28 27 28 29 30 30 30 30 30 30 31 31 31
29 28 27 27 28 28 28 27 25 23 22 22 20 18 16 17 18 18 17 16 16 17 17 18 19 22 24 26 27 28 28 29 30 31 30 30 29 29 30 30 30 31
30 31 30 30 29 29 29 28 27 25 24 24 22 20 17 16 18 19 18 17 16 16 16 17 19 22 23 24 25 26 27 29 31 31 30 30 30 29 29 30 31 32
30 31 32 32 32 31 30 29 28 27 26 25 25 22 19 18 18 19 19 19 18 17 16 16 18 20 22 23 24 25 26 28 30 30 30 30 31 30 30 31 32 33
32 31 32 34 34 32 31 30 29 28 27 27 26 24 22 20 20 20 20 20 19 18 17 17 17 17 18 20 22 24 25 27 29 30 30 30 31 31 32 33 33 34
34 34 34 34 35 34 31 30 30 30 29 28 27 26 24 23 22 22 21 21 20 20 19 18 18 17 17 17 18 21 23 25 28 30 31 31 32 33 34 34 34 35
36 36 35 35 34 34 33 33 32 31 30 29 28 27 26 25 24 24 23 22 22 21 20 20 20 19 18 18 17 17 18 21 24 27 29 31 32 34 35 35 36 36
38 36 36 36 35 35 36 36 34 33 32 31 29 28 28 27 26 25 25 24 24 23 22 21 21 21 21 21 21 20 19 18 19 21 24 27 30 33 34 34 35 35
41 39 37 37 37 37 38 38 36 35 33 31 30 29 29 29 27 27 27 26 26 25 24 23 22 23 23 23 23 23 22 22 22 22 23 24 27 30 32 33 33 34
Wind_Direction
220 217 218 220 224 226 229 230 231 232 232 231 231 230 228 228 230 234 238 239 241 243 243 243 242 241 240 239 239 239 239 240 242 243 243 243 243 243 242 241 241 242
250 238 230 228 230 232 233 236 238 237 235 236 238 239 238 237 235 236 238 240 242 243 244 245 245 245 245 245 246 246 245 245 246 248 249 250 250 251 251 251 251 251
262 255 251 251 250 248 244 243 244 244 246 253 258 257 254 251 248 246 244 245 245 245 245 245 246 246 247 248 248 248 248 248 249 251 252 253 254 255 257 258 258 258
271 266 264 267 268 267 262 256 254 258 269 274 269 263 259 256 255 255 253 252 251 250 249 248 247 247 248 249 249 249 249 250 251 252 252 253 254 256 258 259 259 259
285 281 278 276 276 276 273 271 275 282 281 274 268 265 264 262 259 257 255 255 255 254 252 251 251 251 251 252 252 251 252 253 253 253 254 255 256 258 259 260 260 260
293 293 292 289 287 281 278 286 298 295 282 277 276 272 267 265 264 260 257 256 256 257 255 254 254 254 254 254 253 253 253 254 254 254 254 256 257 258 258 259 259 260
297 298 297 294 289 283 286 300 303 290 284 283 282 278 273 268 265 262 260 258 257 257 256 255 254 255 255 256 256 255 255 254 254 254 254 256 257 257 258 259 260 260
293 296 295 294 290 288 292 302 293 287 292 291 287 285 281 274 269 265 261 258 255 254 254 254 254 255 256 257 257 256 256 256 256 256 256 257 258 259 260 262 263 265
279 284 288 289 290 293 300 302 293 293 298 296 294 293 288 281 277 273 269 263 257 252 249 250 252 252 252 253 254 255 257 259 261 261 260 260 261 263 265 266 266 267
268 274 280 282 285 292 302 303 299 300 303 302 301 299 296 291 284 278 274 269 263 256 252 251 251 250 248 248 250 252 254 257 260 262 261 261 262 264 264 264 263 262
264 269 274 277 281 289 296 299 300 302 306 309 309 306 302 298 291 285 279 273 267 262 258 256 254 252 250 248 248 248 251 254 258 261 261 262 263 264 265 266 266 264
260 265 269 273 279 285 290 294 297 301 306 313 317 316 313 307 301 294 286 276 268 261 257 255 254 254 253 251 250 250 250 252 255 257 258 258 260 263 266 268 268 267
258 261 266 271 275 280 284 288 291 296 304 313 320 323 324 320 313 305 295 282 272 264 258 256 256 256 256 254 253 252 253 254 254 255 256 256 257 259 261 262 263 265
259 260 265 270 274 277 280 284 287 292 300 311 319 325 330 330 323 314 303 291 280 270 260 258 259 256 252 252 250 249 252 256 256 257 259 259 259 260 261 261 264 267
261 261 263 268 272 275 277 281 285 290 296 306 314 322 331 335 329 318 309 300 292 281 267 260 259 252 244 247 250 249 252 255 255 256 258 261 262 262 263 264 267 270
262 262 263 267 271 274 276 278 282 286 292 300 307 317 329 336 332 320 310 304 300 294 282 268 259 249 243 248 254 253 253 255 256 258 259 261 263 264 265 268 270 273
263 263 264 267 270 273 275 277 279 282 286 292 299 309 322 331 332 325 313 306 303 299 293 280 263 251 249 254 259 259 257 258 261 264 265 265 266 267 270 273 275 277
265 264 265 265 267 270 273 275 277 279 281 284 290 300 312 321 327 328 323 311 303 297 292 284 270 260 259 263 267 268 265 262 264 267 269 270 271 273 275 277 278 278
265 264 264 265 266 267 270 273 276 277 278 280 283 290 302 309 314 321 327 323 312 300 291 283 275 270 270 272 274 273 269 267 267 268 269 271 272 273 275 277 278 278
262 263 263 264 265 266 268 270 273 274 276 278 279 282 290 297 301 308 317 324 325 316 301 289 280 275 275 275 274 271 268 267 268 269 269 271 272 272 273 275 276 278
255 260 263 263 264 264 265 267 269 272 274 276 278 279 282 286 290 295 303 311 319 323 317 304 291 283 280 277 275 273 271 267 267 270 271 272 273 274 273 273 273 275
253 256 260 261 262 262 263 265 267 269 271 274 276 277 278 278 281 287 293 298 306 313 317 316 309 301 293 287 283 283 281 275 273 276 277 276 276 276 275 274 274 275
254 254 256 258 259 260 263 264 265 266 268 271 274 275 275 274 276 280 285 290 295 301 306 310 314 314 312 306 298 292 288 283 282 283 284 283 281 278 276 275 275 276
258 257 257 258 259 261 264 265 264 265 266 268 271 274 273 272 272 275 279 283 287 291 296 299 303 307 312 315 315 309 301 293 289 288 288 287 286 283 280 277 275 276
262 261 261 261 262 262 264 265 264 264 265 266 269 271 271 271 270 271 273 277 281 285 288 291 293 297 301 305 309 313 313 309 304 300 297 292 288 286 284 282 279 278
261 265 267 266 265 263 263 264 265 264 264 266 267 267 269 270 269 268 269 272 276 279 281 284 286 290 294 298 301 304 307 310 312 311 309 304 298 292 288 285 283 282